This is the latest recevied weather packets stored in our database for station/object KI7MOQ. If no packets are shown the sender has not sent any weather packets the latest 10 day(s).
| Time | Temp. | Humidity | Pressure | Rain* | Wind** | Luminosity | Snow |
|---|---|---|---|---|---|---|---|
| 1777951002 | 21.11° C | 64% | 1012.7 hPa | 0 mm | - | 1 W/m² | - |
| 1777950698 | 21.11° C | 68% | 1012.8 hPa | 0 mm | - | 2 W/m² | - |
| 1777950395 | 21.67° C | 66% | 1012.5 hPa | 0 mm | - | 3 W/m² | - |
| 1777950091 | 21.67° C | 66% | 1012.5 hPa | 0 mm | - | 4 W/m² | - |
| 1777949787 | 21.67° C | 65% | 1012.6 hPa | 0 mm | - | 5 W/m² | - |
| 1777949486 | 21.67° C | 65% | 1012.3 hPa | 0 mm | - | 5 W/m² | - |
| 1777949183 | 21.67° C | 65% | 1012.3 hPa | 0 mm | - | 6 W/m² | - |
| 1777948880 | 22.22° C | 64% | 1012.4 hPa | 0 mm | - | 7 W/m² | - |
| 1777948577 | 22.22° C | 64% | 1012.2 hPa | 0 mm | - | 8 W/m² | - |
| 1777948275 | 22.22° C | 63% | 1012.2 hPa | 0 mm | - | 9 W/m² | - |
| 1777947972 | 22.22° C | 63% | 1012.2 hPa | 0 mm | - | 10 W/m² | - |
| 1777947669 | 22.22° C | 63% | 1012.4 hPa | 0 mm | - | 10 W/m² | - |
| 1777947365 | 22.22° C | 62% | 1012.2 hPa | 0 mm | - | 12 W/m² | - |
| 1777947062 | 22.78° C | 62% | 1012.2 hPa | 0 mm | - | 12 W/m² | - |
| 1777946763 | 22.78° C | 62% | 1012.4 hPa | 0 mm | - | 12 W/m² | - |
| 1777946459 | 22.78° C | 61% | 1012.3 hPa | 0 mm | - | 13 W/m² | - |
| 1777946156 | 22.78° C | 61% | 1012 hPa | 0 mm | - | 13 W/m² | - |
| 1777945853 | 22.78° C | 60% | 1012.3 hPa | 0 mm | - | 14 W/m² | - |
| 1777945550 | 22.78° C | 60% | 1012.3 hPa | 0 mm | - | 60 W/m² | - |
| 1777945247 | 22.78° C | 60% | 1012.3 hPa | 0 mm | - | 15 W/m² | - |
| 1777944944 | 22.78° C | 60% | 1012.3 hPa | 0 mm | - | 16 W/m² | - |
| 1777944642 | 23.33° C | 59% | 1012.4 hPa | 0 mm | - | 17 W/m² | - |
| 1777944339 | 22.78° C | 59% | 1012.4 hPa | 0 mm | - | 16 W/m² | - |
| 1777944036 | 23.33° C | 58% | 1012.5 hPa | 0 mm | - | 17 W/m² | - |
| 1777943731 | 23.33° C | 58% | 1012.4 hPa | 0 mm | - | 18 W/m² | - |
* Rain latest hour (hover to see other rain measurements)
** Current wind speed in m/s (hover to see current wind gust speed)